GSAT0203 (GALILEO 7)

Last updated on Sat Sep 19 2026 00:02:48 GMT+0000 (Coordinated Universal Time)

1 40544U 15017A 26260.89286681 -.00000097 00000+0 00000+0 0 9990 2 40544 56.7489 339.0688 0004460 252.0601 107.9439 1.70476597 70786
UTC large
Height (km)
Speed (km/s)
/
Latitude / Longitude
Inclination (degrees)
Orbital Period (minutes)
Azimuth
Elevation
Range (km)
Doppler Factor

Next 0 passes for location: London (51.5072 / 0.1276)

No passes found over London.
GSAT0203 (GALILEO 7)